NOZ59S LIRF-ENBR

Flight info

Callsign NOZ59S
Flight time N/A
Altitude 36000
Route SOVAN DCT AMTEL DCT ABREG DCT LOKTA/N0442F370 DCT TEDGO DCT HAREM DCT LOHRE DCT ELNAT/N0442F380 DCT IPSUB DCT BADAB
Aircraft B738/M-SDE2E3GHIJ1LRWXY/LB1

Departure

Time 2026-05-06 23:30
Airport Rome–Fiumicino Leonardo da Vinci International Airport (LIRF)

Arrival

Time N/A
Airport Bergen Airport, Flesland (ENBR)
Time Latitude Longitude Altitude Speed Heading
2026-05-06 22:53 41.79804 12.24835 23 ft 0 kts 250°
2026-05-06 23:19 41.79805 12.24840 22 ft 2 kts 250°
2026-05-06 23:19 41.79809 12.24860 22 ft 2 kts 269°
2026-05-06 23:19 41.79807 12.24880 22 ft 2 kts 284°
2026-05-06 23:19 41.79802 12.24899 22 ft 2 kts 300°
2026-05-06 23:20 41.79793 12.24915 22 ft 2 kts 315°
2026-05-06 23:20 41.79781 12.24928 22 ft 2 kts 331°
2026-05-06 23:20 41.79773 12.24933 22 ft 1 kts 341°
2026-05-06 23:20 41.79769 12.24934 22 ft 0 kts 340°
2026-05-06 23:22 41.79791 12.24924 22 ft 5 kts 340°
2026-05-06 23:23 41.79858 12.24891 22 ft 14 kts 339°
2026-05-06 23:23 41.79951 12.24845 22 ft 13 kts 340°
2026-05-06 23:23 41.80039 12.24802 22 ft 13 kts 338°
2026-05-06 23:23 41.80062 12.24704 22 ft 12 kts 250°
2026-05-06 23:24 41.80031 12.24591 22 ft 15 kts 249°
2026-05-06 23:24 41.79987 12.24430 22 ft 21 kts 249°
2026-05-06 23:24 41.79935 12.24244 22 ft 20 kts 252°
2026-05-06 23:24 41.79918 12.24055 22 ft 20 kts 265°
2026-05-06 23:25 41.79877 12.23880 22 ft 19 kts 249°
2026-05-06 23:25 41.79847 12.23729 22 ft 15 kts 281°
2026-05-06 23:25 41.79928 12.23655 22 ft 14 kts 343°
2026-05-06 23:25 41.80024 12.23616 22 ft 14 kts 342°
2026-05-06 23:26 41.80121 12.23574 22 ft 18 kts 342°
2026-05-06 23:26 41.80261 12.23517 22 ft 21 kts 341°
2026-05-06 23:26 41.80400 12.23458 22 ft 20 kts 342°
2026-05-06 23:26 41.80534 12.23402 22 ft 20 kts 342°
2026-05-06 23:27 41.80665 12.23346 22 ft 19 kts 342°
2026-05-06 23:27 41.80793 12.23292 22 ft 18 kts 342°
2026-05-06 23:27 41.80939 12.23233 22 ft 26 kts 341°
2026-05-06 23:27 41.81115 12.23158 22 ft 26 kts 342°
2026-05-06 23:28 41.81283 12.23087 22 ft 24 kts 342°
2026-05-06 23:28 41.81400 12.23020 22 ft 16 kts 309°
2026-05-06 23:28 41.81451 12.22891 22 ft 15 kts 297°
2026-05-06 23:28 41.81498 12.22764 22 ft 14 kts 284°
2026-05-06 23:29 41.81444 12.22691 22 ft 12 kts 162°
2026-05-06 23:29 41.81435 12.22695 22 ft 0 kts 162°
2026-05-06 23:29 41.81378 12.22719 22 ft 34 kts 162°
2026-05-06 23:29 41.80923 12.22912 22 ft 100 kts 163°
2026-05-06 23:30 41.80065 12.23269 23 ft 154 kts 162°
2026-05-06 23:30 41.78951 12.23714 415 ft 168 kts 161°
2026-05-06 23:30 41.77874 12.24145 1203 ft 163 kts 161°
2026-05-06 23:30 41.76725 12.24652 1639 ft 179 kts 159°
2026-05-06 23:31 41.75561 12.25098 2281 ft 176 kts 174°
2026-05-06 23:31 41.74343 12.24666 2604 ft 193 kts 212°
2026-05-06 23:31 41.73366 12.23393 3068 ft 202 kts 230°
2026-05-06 23:31 41.72529 12.21860 3609 ft 208 kts 231°
2026-05-06 23:32 41.71639 12.20370 4283 ft 206 kts 228°
2026-05-06 23:32 41.70755 12.19013 4895 ft 206 kts 227°
2026-05-06 23:32 41.69891 12.17510 5501 ft 207 kts 240°
2026-05-06 23:32 41.69458 12.15638 5953 ft 214 kts 264°
2026-05-06 23:33 41.69632 12.13662 5998 ft 219 kts 285°
2026-05-06 23:33 41.70272 12.11822 5998 ft 219 kts 301°
2026-05-06 23:33 41.71337 12.10316 5997 ft 226 kts 325°
2026-05-06 23:33 41.72794 12.09569 6001 ft 230 kts 349°
2026-05-06 23:34 41.74415 12.09298 6109 ft 242 kts 351°
2026-05-06 23:34 41.76059 12.08997 6832 ft 237 kts 349°
2026-05-06 23:34 41.77697 12.08661 7552 ft 237 kts 349°
2026-05-06 23:34 41.79330 12.08322 8135 ft 242 kts 349°
2026-05-06 23:35 41.81002 12.07984 8778 ft 245 kts 349°
2026-05-06 23:35 41.82676 12.07653 9449 ft 247 kts 349°
2026-05-06 23:35 41.84365 12.07320 10107 ft 249 kts 349°
2026-05-06 23:35 41.86110 12.07016 10716 ft 254 kts 352°
2026-05-06 23:36 41.87911 12.06817 11104 ft 270 kts 353°
2026-05-06 23:36 41.89834 12.06655 11513 ft 284 kts 354°
2026-05-06 23:36 41.91853 12.06480 11914 ft 299 kts 354°
2026-05-06 23:36 41.93987 12.06284 12301 ft 315 kts 353°
2026-05-06 23:37 41.96231 12.06067 12698 ft 331 kts 353°
2026-05-06 23:37 41.98587 12.05837 13089 ft 346 kts 353°
2026-05-06 23:37 42.01035 12.05595 13469 ft 361 kts 353°
2026-05-06 23:37 42.03560 12.05346 14050 ft 370 kts 353°
2026-05-06 23:38 42.06121 12.05094 14746 ft 375 kts 353°
2026-05-06 23:38 42.08746 12.04837 15457 ft 379 kts 353°
2026-05-06 23:38 42.11411 12.04575 16172 ft 383 kts 353°
2026-05-06 23:38 42.14072 12.04314 16837 ft 388 kts 353°
2026-05-06 23:39 42.16780 12.04049 17489 ft 393 kts 353°
2026-05-06 23:39 42.19499 12.03784 18111 ft 398 kts 353°
2026-05-06 23:39 42.22280 12.03528 18803 ft 400 kts 353°
2026-05-06 23:39 42.25052 12.03307 19494 ft 403 kts 353°
2026-05-06 23:40 42.27855 12.03127 20081 ft 407 kts 354°
2026-05-06 23:40 42.30672 12.03001 20808 ft 407 kts 355°
2026-05-06 23:40 42.33527 12.02931 21337 ft 413 kts 355°
2026-05-06 23:40 42.36408 12.02815 21734 ft 419 kts 351°
2026-05-06 23:41 42.39299 12.02251 22208 ft 421 kts 344°
2026-05-06 23:41 42.42157 12.01397 22766 ft 422 kts 341°
2026-05-06 23:41 42.45007 12.00440 23281 ft 426 kts 341°
2026-05-06 23:41 42.47876 11.99468 23819 ft 429 kts 341°
2026-05-06 23:42 42.50821 11.98502 24333 ft 433 kts 341°
2026-05-06 23:42 42.53758 11.97582 24840 ft 437 kts 342°
2026-05-06 23:42 42.56730 11.96688 25330 ft 441 kts 342°
2026-05-06 23:42 42.59727 11.95815 25788 ft 445 kts 342°
2026-05-06 23:43 42.62761 11.94949 26300 ft 448 kts 343°
2026-05-06 23:43 42.65830 11.94084 26685 ft 453 kts 343°
2026-05-06 23:43 42.68932 11.93216 27146 ft 456 kts 343°
2026-05-06 23:43 42.72061 11.92342 27598 ft 459 kts 343°
2026-05-06 23:44 42.75185 11.91469 28068 ft 461 kts 343°
2026-05-06 23:44 42.78345 11.90574 28536 ft 463 kts 342°
2026-05-06 23:44 42.81500 11.89534 28932 ft 464 kts 339°
2026-05-06 23:44 42.84558 11.88177 29232 ft 466 kts 333°
2026-05-06 23:45 42.87578 11.86397 29500 ft 468 kts 328°
2026-05-06 23:45 42.90456 11.84426 29928 ft 468 kts 326°
2026-05-06 23:45 42.93308 11.82339 30557 ft 464 kts 325°
2026-05-06 23:45 42.96153 11.80204 31134 ft 462 kts 324°
2026-05-06 23:46 42.98950 11.78094 31739 ft 459 kts 324°
2026-05-06 23:46 43.01710 11.76017 32404 ft 454 kts 324°
2026-05-06 23:46 43.04440 11.73973 33257 ft 444 kts 324°
2026-05-06 23:46 43.07114 11.71981 34003 ft 437 kts 324°
2026-05-06 23:47 43.09785 11.69995 34453 ft 436 kts 324°
2026-05-06 23:47 43.12439 11.68019 34753 ft 436 kts 325°
2026-05-06 23:47 43.15101 11.66039 35024 ft 437 kts 325°
2026-05-06 23:47 43.17775 11.64053 35302 ft 437 kts 325°
2026-05-06 23:48 43.20459 11.62062 35628 ft 436 kts 325°
2026-05-06 23:48 43.23125 11.60105 35886 ft 438 kts 326°
2026-05-06 23:48 43.25880 11.58229 35963 ft 443 kts 328°
2026-05-06 23:49 43.31464 11.54723 35971 ft 442 kts 329°
2026-05-06 23:49 43.37049 11.51298 35961 ft 441 kts 329°
2026-05-06 23:50 43.42664 11.47817 35965 ft 441 kts 329°
2026-05-06 23:50 43.50997 11.42575 35971 ft 440 kts 328°
2026-05-06 23:51 43.56579 11.39034 35960 ft 441 kts 328°
2026-05-06 23:51 43.62136 11.35494 35972 ft 442 kts 328°
2026-05-06 23:52 43.67727 11.31924 35968 ft 441 kts 328°
2026-05-06 23:52 43.73300 11.28363 35973 ft 442 kts 328°
2026-05-06 23:53 43.78876 11.24788 35973 ft 443 kts 328°
2026-05-06 23:53 43.84468 11.21195 35974 ft 443 kts 328°
2026-05-06 23:54 43.90041 11.17606 35966 ft 444 kts 328°
2026-05-06 23:54 43.95632 11.13999 35972 ft 444 kts 328°
2026-05-06 23:55 44.01199 11.10401 35958 ft 444 kts 327°
2026-05-06 23:55 44.06783 11.06785 35958 ft 441 kts 327°
2026-05-06 23:56 44.12364 11.03162 35974 ft 443 kts 327°
2026-05-06 23:56 44.17936 10.99538 35956 ft 443 kts 328°
2026-05-06 23:57 44.23478 10.95928 35959 ft 441 kts 327°
2026-05-06 23:57 44.29072 10.92273 35959 ft 445 kts 327°
2026-05-06 23:58 44.34618 10.88644 35948 ft 442 kts 327°
2026-05-06 23:58 44.40199 10.84980 35940 ft 447 kts 327°
2026-05-06 23:59 44.45824 10.81279 35935 ft 445 kts 327°
2026-05-06 23:59 44.51392 10.77618 35935 ft 442 kts 327°
2026-05-07 00:00 44.56971 10.73931 35918 ft 445 kts 328°
2026-05-07 00:00 44.61650 10.70837 35943 ft 446 kts 328°
2026-05-07 00:01 44.68137 10.66537 35925 ft 444 kts 327°
2026-05-07 00:01 44.73726 10.62827 35918 ft 445 kts 327°
2026-05-07 00:02 44.79309 10.59109 35923 ft 446 kts 327°
2026-05-07 00:02 44.84909 10.55373 35911 ft 445 kts 327°
2026-05-07 00:03 44.90550 10.51599 35916 ft 449 kts 327°
2026-05-07 00:03 44.96158 10.47845 35915 ft 445 kts 327°
2026-05-07 00:04 45.01749 10.44091 35921 ft 447 kts 327°
2026-05-07 00:04 45.07370 10.40307 35921 ft 447 kts 328°
2026-05-07 00:05 45.12967 10.36531 35920 ft 447 kts 328°
2026-05-07 00:05 45.18576 10.32738 35917 ft 448 kts 327°
2026-05-07 00:06 45.24194 10.28933 35924 ft 449 kts 327°
2026-05-07 00:06 45.29786 10.25138 35926 ft 446 kts 327°
2026-05-07 00:07 45.35410 10.21312 35926 ft 448 kts 328°
2026-05-07 00:07 45.41008 10.17496 35927 ft 447 kts 328°
2026-05-07 00:08 45.46598 10.13675 35922 ft 446 kts 328°